When you browse on this site, cookies collect data to enhance your experience and personalize the content and advertising you see.
Visit our Privacy Policy to learn more. By continuing to use the site, you agree to this use of cookies and data.
  • In Hungary
  • List of Countries
  • For 7 days
  • Water Temperature
  • Weather Map
  • News
  • Weather Widgets
  • user-avatar
    Login

    Hourly Weather Partizansk

    Today, 31 March, Tuesday

    Time Temperature Precipitation Wind Pressure Humidity
    00:00 +2°C° 0 mm 0 mps 752 mmHg 95%
    01:00 +2°C° 0 mm 0 mps 752 mmHg 96%
    02:00 +2°C° 0 mm 0 mps 751 mmHg 96%
    03:00 +2°C° 0 mm 0 mps 751 mmHg 96%
    04:00 +2°C° 0 mm 0 mps 751 mmHg 96%
    05:00 +2°C° 0 mm 0 mps 751 mmHg 96%
    06:00 +2°C° 0 mm 0 mps 751 mmHg 96%
    07:00 +4°C° 0 mm 0 mps 751 mmHg 90%
    08:00 +6°C° 0 mm 1 mps 751 mmHg 84%
    09:00 +9°C° 0 mm 1 mps 751 mmHg 76%
    10:00 +10°C° 0 mm 1 mps 750 mmHg 70%
    11:00 +10°C° 0 mm 2 mps 750 mmHg 65%
    12:00 +11°C° 0 mm 3 mps 750 mmHg 59%
    13:00 +11°C° 0 mm 3 mps 750 mmHg 59%
    14:00 +11°C° 0 mm 3 mps 749 mmHg 58%
    15:00 +11°C° 0 mm 3 mps 748 mmHg 57%
    16:00 +9°C° 0 mm 3 mps 748 mmHg 64%
    17:00 +8°C° 0 mm 2 mps 748 mmHg 70%
    18:00 +7°C° 0 mm 2 mps 748 mmHg 76%
    19:00 +6°C° 0 mm 2 mps 748 mmHg 82%
    20:00 +6°C° 0 mm 1 mps 748 mmHg 88%
    21:00 +5°C° 0 mm 1 mps 748 mmHg 94%
    22:00 +4°C° 0 mm 0 mps 748 mmHg 93%
    23:00 +5°C° 0 mm 0 mps 748 mmHg 93%

    Tomorrow, 1 April, Wednesday

    Time Temperature Precipitation Wind Pressure Humidity
    00:00 +5°C° 0 mm 0 mps 748 mmHg 93%
    01:00 +5°C° 0.1 mm 0 mps 748 mmHg 94%
    02:00 +5°C° 0.1 mm 0 mps 748 mmHg 95%
    03:00 +6°C° 0.1 mm 1 mps 748 mmHg 96%
    04:00 +6°C° 0.2 mm 1 mps 748 mmHg 95%
    05:00 +6°C° 0.2 mm 1 mps 748 mmHg 93%
    06:00 +6°C° 0.2 mm 1 mps 748 mmHg 92%
    07:00 +6°C° 0 mm 2 mps 749 mmHg 82%
    08:00 +6°C° 0 mm 2 mps 749 mmHg 73%
    09:00 +7°C° 0 mm 3 mps 749 mmHg 63%
    10:00 +8°C° 0 mm 3 mps 749 mmHg 56%
    11:00 +9°C° 0 mm 3 mps 749 mmHg 50%
    12:00 +10°C° 0 mm 4 mps 749 mmHg 43%
    13:00 +10°C° 0 mm 4 mps 749 mmHg 40%
    14:00 +10°C° 0 mm 4 mps 749 mmHg 38%
    15:00 +10°C° 0 mm 4 mps 748 mmHg 35%
    16:00 +8°C° 0 mm 4 mps 749 mmHg 37%
    17:00 +8°C° 0 mm 3 mps 749 mmHg 39%
    18:00 +7°C° 0 mm 3 mps 749 mmHg 41%
    19:00 +6°C° 0 mm 2 mps 749 mmHg 45%
    20:00 +4°C° 0 mm 2 mps 750 mmHg 49%
    21:00 +4°C° 0 mm 1 mps 750 mmHg 53%
    22:00 +3°C° 0 mm 1 mps 750 mmHg 53%
    23:00 +3°C° 0 mm 1 mps 750 mmHg 54%

    Day after tomorrow, 2 April, Thursday

    Time Temperature Precipitation Wind Pressure Humidity
    00:00 +2°C° 0 mm 1 mps 750 mmHg 54%
    01:00 +2°C° 0 mm 1 mps 749 mmHg 53%
    02:00 +2°C° 0 mm 1 mps 749 mmHg 53%
    03:00 +2°C° 0 mm 1 mps 749 mmHg 52%
    04:00 +2°C° 0 mm 1 mps 748 mmHg 52%
    05:00 +2°C° 0 mm 1 mps 748 mmHg 52%
    06:00 +2°C° 0 mm 1 mps 748 mmHg 52%
    07:00 +4°C° 0 mm 1 mps 748 mmHg 45%
    08:00 +7°C° 0 mm 1 mps 747 mmHg 38%
    09:00 +10°C° 0 mm 1 mps 747 mmHg 31%
    10:00 +10°C° 0 mm 2 mps 747 mmHg 29%
    11:00 +12°C° 0 mm 3 mps 746 mmHg 27%
    12:00 +13°C° 0 mm 4 mps 746 mmHg 25%
    13:00 +13°C° 0 mm 4 mps 745 mmHg 25%
    14:00 +13°C° 0 mm 4 mps 745 mmHg 26%
    15:00 +14°C° 0 mm 5 mps 744 mmHg 26%
    16:00 +12°C° 0 mm 4 mps 744 mmHg 31%
    17:00 +11°C° 0 mm 3 mps 744 mmHg 37%
    18:00 +10°C° 0 mm 3 mps 744 mmHg 42%
    19:00 +9°C° 0 mm 3 mps 745 mmHg 43%
    20:00 +7°C° 0 mm 4 mps 746 mmHg 43%
    21:00 +5°C° 0 mm 4 mps 746 mmHg 44%
    22:00 +4°C° 0 mm 4 mps 747 mmHg 43%
    23:00 +3°C° 0 mm 4 mps 747 mmHg 41%

    3 April, Friday

    Time Temperature Precipitation Wind Pressure Humidity
    00:00 +1°C° 0 mm 3 mps 747 mmHg 40%
    01:00 0°C° 0 mm 3 mps 747 mmHg 41%
    02:00 -1°C° 0 mm 2 mps 748 mmHg 43%
    03:00 -2°C° 0 mm 2 mps 748 mmHg 45%
    04:00 -2°C° 0 mm 2 mps 748 mmHg 44%
    05:00 -2°C° 0 mm 2 mps 748 mmHg 43%
    06:00 0°C° 0 mm 1 mps 747 mmHg 41%
    07:00 0°C° 0 mm 3 mps 747 mmHg 35%
    08:00 +1°C° 0 mm 4 mps 748 mmHg 29%
    09:00 +3°C° 0 mm 5 mps 748 mmHg 23%
    10:00 +5°C° 0 mm 5 mps 747 mmHg 23%
    11:00 +7°C° 0 mm 5 mps 747 mmHg 22%
    12:00 +8°C° 0 mm 5 mps 746 mmHg 22%
    13:00 +8°C° 0 mm 5 mps 746 mmHg 23%
    14:00 +8°C° 0 mm 5 mps 745 mmHg 23%
    15:00 +8°C° 0 mm 5 mps 745 mmHg 24%
    16:00 +7°C° 0.1 mm 4 mps 745 mmHg 37%
    17:00 +5°C° 0.1 mm 4 mps 745 mmHg 50%
    18:00 +3°C° 0.1 mm 3 mps 745 mmHg 63%
    19:00 +3°C° 1.5 mm 2 mps 745 mmHg 74%
    20:00 +3°C° 1.5 mm 1 mps 745 mmHg 85%
    21:00 +2°C° 1.5 mm 0 mps 745 mmHg 96%
    22:00 +2°C° 0.1 mm 1 mps 745 mmHg 95%
    23:00 +2°C° 0.1 mm 1 mps 744 mmHg 95%

    4 April, Saturday

    Time Temperature Precipitation Wind Pressure Humidity
    00:00 +2°C° 0.1 mm 1 mps 744 mmHg 94%
    01:00 +1°C° 0 mm 1 mps 744 mmHg 93%
    02:00 -1°C° 0 mm 2 mps 744 mmHg 92%
    03:00 -2°C° 0 mm 2 mps 745 mmHg 91%
    04:00 -2°C° 0 mm 2 mps 745 mmHg 85%
    05:00 -2°C° 0 mm 3 mps 746 mmHg 78%
    06:00 -4°C° 0 mm 3 mps 747 mmHg 72%
    07:00 -3°C° 0 mm 4 mps 747 mmHg 67%
    08:00 -2°C° 0 mm 4 mps 748 mmHg 63%
    09:00 -2°C° 0 mm 5 mps 749 mmHg 58%
    10:00 -1°C° 0 mm 5 mps 749 mmHg 55%
    11:00 -1°C° 0 mm 6 mps 749 mmHg 53%
    12:00 +1°C° 0 mm 6 mps 749 mmHg 51%
    13:00 +1°C° 0.1 mm 6 mps 750 mmHg 52%
    14:00 +1°C° 0.1 mm 6 mps 750 mmHg 54%
    15:00 +2°C° 0.1 mm 6 mps 750 mmHg 56%
    16:00 +1°C° 0.1 mm 6 mps 751 mmHg 58%
    17:00 +1°C° 0.1 mm 5 mps 751 mmHg 59%
    18:00 0°C° 0.1 mm 4 mps 752 mmHg 61%
    19:00 -1°C° 0 mm 4 mps 753 mmHg 69%
    20:00 -1°C° 0 mm 3 mps 753 mmHg 76%
    21:00 -2°C° 0 mm 2 mps 754 mmHg 83%
    22:00 -2°C° 0 mm 2 mps 754 mmHg 83%
    23:00 -3°C° 0 mm 2 mps 755 mmHg 82%

    5 April, Sunday

    Time Temperature Precipitation Wind Pressure Humidity
    00:00 -3°C° 0 mm 2 mps 755 mmHg 82%
    01:00 -3°C° 0 mm 2 mps 755 mmHg 81%
    02:00 -3°C° 0 mm 2 mps 755 mmHg 80%
    03:00 -3°C° 0 mm 2 mps 755 mmHg 79%
    04:00 -3°C° 0 mm 2 mps 755 mmHg 78%
    05:00 -4°C° 0 mm 2 mps 756 mmHg 77%
    06:00 -4°C° 0 mm 2 mps 756 mmHg 76%
    07:00 -1°C° 0 mm 2 mps 756 mmHg 64%
    08:00 +1°C° 0 mm 3 mps 756 mmHg 53%
    09:00 +4°C° 0 mm 4 mps 756 mmHg 42%
    10:00 +5°C° 0 mm 4 mps 756 mmHg 40%
    11:00 +6°C° 0 mm 4 mps 756 mmHg 38%
    12:00 +7°C° 0 mm 4 mps 756 mmHg 36%
    13:00 +7°C° 0 mm 5 mps 755 mmHg 36%
    14:00 +7°C° 0 mm 5 mps 755 mmHg 35%
    15:00 +7°C° 0 mm 5 mps 755 mmHg 35%
    16:00 +6°C° 0 mm 4 mps 755 mmHg 38%
    17:00 +5°C° 0 mm 3 mps 754 mmHg 40%
    18:00 +5°C° 0 mm 2 mps 754 mmHg 43%
    19:00 +3°C° 0 mm 2 mps 755 mmHg 48%
    20:00 +3°C° 0 mm 1 mps 755 mmHg 52%
    21:00 +1°C° 0 mm 1 mps 755 mmHg 57%
    22:00 +1°C° 0 mm 1 mps 755 mmHg 57%
    23:00 +1°C° 0 mm 1 mps 755 mmHg 58%
    Show more